TimeEST,TemperatureF,Dew PointF,Humidity,Sea Level PressureIn,VisibilityMPH,Wind Direction,Wind SpeedMPH,Gust SpeedMPH,PrecipitationIn,Events,Conditions,WindDirDegrees,DateUTC
12:15 AM,25.9,25.9,100,30.32,10.0,Calm,Calm,-,N/A,,Clear,0,2013-11-09 05:15:00
12:35 AM,26.1,26.1,100,30.32,10.0,Calm,Calm,-,N/A,,Clear,0,2013-11-09 05:35:00
12:55 AM,26.2,26.2,100,30.32,10.0,SSE,4.6,-,N/A,,Clear,160,2013-11-09 05:55:00
1:15 AM,26.1,26.1,100,30.32,10.0,Calm,Calm,-,N/A,,Clear,0,2013-11-09 06:15:00
1:35 AM,25.0,25.0,100,30.33,10.0,Calm,Calm,-,N/A,,Clear,0,2013-11-09 06:35:00
1:55 AM,25.3,25.3,100,30.33,10.0,Calm,Calm,-,N/A,,Clear,0,2013-11-09 06:55:00
2:15 AM,25.5,25.5,100,30.33,10.0,Calm,Calm,-,N/A,,Clear,0,2013-11-09 07:15:00
2:35 AM,25.9,25.9,100,30.32,10.0,Calm,Calm,-,N/A,,Clear,0,2013-11-09 07:35:00
2:55 AM,25.3,25.3,100,30.33,10.0,Calm,Calm,-,N/A,,Clear,0,2013-11-09 07:55:00
3:15 AM,24.6,24.6,100,30.32,10.0,Calm,Calm,-,N/A,,Clear,0,2013-11-09 08:15:00
3:35 AM,24.8,24.8,100,30.33,10.0,Calm,Calm,-,N/A,,Clear,0,2013-11-09 08:35:00
3:55 AM,25.3,25.3,100,30.33,10.0,Calm,Calm,-,N/A,,Clear,0,2013-11-09 08:55:00
4:15 AM,24.3,24.3,100,30.33,10.0,Calm,Calm,-,N/A,,Clear,0,2013-11-09 09:15:00
4:35 AM,24.6,24.6,100,30.33,10.0,Calm,Calm,-,N/A,,Clear,0,2013-11-09 09:35:00
4:55 AM,25.3,25.3,100,30.33,10.0,Calm,Calm,-,N/A,,Clear,0,2013-11-09 09:55:00
5:15 AM,24.8,24.8,100,30.33,10.0,Calm,Calm,-,N/A,,Clear,0,2013-11-09 10:15:00
5:35 AM,24.6,24.6,100,30.32,10.0,Calm,Calm,-,N/A,,Clear,0,2013-11-09 10:35:00
5:55 AM,24.3,24.3,100,30.33,10.0,Calm,Calm,-,N/A,,Clear,0,2013-11-09 10:55:00
6:15 AM,24.1,24.1,100,30.33,10.0,Calm,Calm,-,N/A,,Clear,0,2013-11-09 11:15:00
6:35 AM,23.5,23.5,100,30.34,10.0,Calm,Calm,-,N/A,,Clear,0,2013-11-09 11:35:00
6:55 AM,24.6,24.6,100,30.35,10.0,Calm,Calm,-,N/A,,Clear,0,2013-11-09 11:55:00
7:15 AM,26.1,26.1,100,30.36,10.0,Calm,Calm,-,N/A,,Clear,0,2013-11-09 12:15:00
7:35 AM,28.2,28.2,100,30.35,10.0,Calm,Calm,-,N/A,,Clear,0,2013-11-09 12:35:00
7:55 AM,31.1,31.1,100,30.36,10.0,Calm,Calm,-,N/A,,Clear,0,2013-11-09 12:55:00
8:15 AM,32.7,32.0,97,30.35,10.0,Calm,Calm,-,N/A,,Clear,0,2013-11-09 13:15:00
8:35 AM,35.2,32.4,89,30.35,10.0,Calm,Calm,-,N/A,,Clear,0,2013-11-09 13:35:00
8:55 AM,38.1,33.1,82,30.35,10.0,Calm,Calm,-,N/A,,Clear,0,2013-11-09 13:55:00
9:15 AM,41.5,35.1,78,30.35,10.0,WSW,4.6,-,N/A,,Clear,240,2013-11-09 14:15:00
9:35 AM,43.3,33.8,69,30.35,10.0,SSW,5.8,-,N/A,,Clear,200,2013-11-09 14:35:00
9:55 AM,44.8,34.2,66,30.34,10.0,SW,6.9,-,N/A,,Clear,220,2013-11-09 14:55:00
10:15 AM,46.8,34.5,62,30.33,10.0,South,5.8,-,N/A,,Clear,190,2013-11-09 15:15:00
10:35 AM,48.9,34.2,57,30.31,10.0,South,9.2,-,N/A,,Clear,180,2013-11-09 15:35:00
10:55 AM,50.2,33.3,52,30.30,10.0,South,6.9,16.1,N/A,,Clear,190,2013-11-09 15:55:00
11:15 AM,52.0,32.9,48,30.29,10.0,SW,11.5,-,N/A,,Clear,220,2013-11-09 16:15:00
11:35 AM,52.9,33.1,47,30.28,10.0,SSW,10.4,-,N/A,,Clear,200,2013-11-09 16:35:00
11:55 AM,53.4,33.8,47,30.26,10.0,SW,11.5,17.3,N/A,,Clear,220,2013-11-09 16:55:00
12:15 PM,53.8,33.6,46,30.24,10.0,SW,10.4,20.7,N/A,,Clear,220,2013-11-09 17:15:00
12:35 PM,54.7,33.3,44,30.23,10.0,SSW,10.4,17.3,N/A,,Clear,210,2013-11-09 17:35:00
12:55 PM,55.4,33.1,43,30.21,10.0,South,12.7,-,N/A,,Clear,170,2013-11-09 17:55:00
1:15 PM,55.6,32.9,42,30.20,10.0,SW,11.5,20.7,N/A,,Clear,230,2013-11-09 18:15:00
1:35 PM,55.9,33.1,42,30.18,10.0,South,9.2,17.3,N/A,,Clear,170,2013-11-09 18:35:00
1:55 PM,56.5,33.6,42,30.17,10.0,South,9.2,16.1,N/A,,Clear,190,2013-11-09 18:55:00
2:15 PM,56.7,33.8,42,30.16,10.0,South,11.5,-,N/A,,Clear,180,2013-11-09 19:15:00
2:35 PM,57.4,34.3,42,30.16,10.0,South,10.4,17.3,N/A,,Clear,180,2013-11-09 19:35:00
2:55 PM,56.8,34.0,42,30.15,10.0,South,9.2,18.4,N/A,,Clear,190,2013-11-09 19:55:00
3:15 PM,57.2,34.3,42,30.14,10.0,SSW,9.2,-,N/A,,Clear,210,2013-11-09 20:15:00
3:35 PM,56.8,34.0,42,30.14,10.0,South,8.1,-,N/A,,Clear,190,2013-11-09 20:35:00
3:55 PM,56.5,34.0,43,30.14,10.0,SSW,6.9,-,N/A,,Clear,200,2013-11-09 20:55:00
4:15 PM,55.9,33.4,43,30.13,10.0,South,5.8,-,N/A,,Clear,180,2013-11-09 21:15:00
4:35 PM,55.0,33.3,44,30.13,10.0,SSW,9.2,-,N/A,,Clear,200,2013-11-09 21:35:00
4:55 PM,53.6,33.1,46,30.12,10.0,South,6.9,-,N/A,,Clear,180,2013-11-09 21:55:00
5:15 PM,52.3,32.9,48,30.12,10.0,South,5.8,-,N/A,,Clear,190,2013-11-09 22:15:00
5:35 PM,50.4,33.1,52,30.13,10.0,SSW,5.8,-,N/A,,Clear,200,2013-11-09 22:35:00
5:55 PM,49.5,33.1,53,30.13,10.0,South,3.5,-,N/A,,Clear,170,2013-11-09 22:55:00
6:15 PM,48.6,32.9,55,30.12,10.0,South,5.8,-,N/A,,Clear,170,2013-11-09 23:15:00
6:35 PM,48.7,33.6,56,30.12,10.0,South,5.8,-,N/A,,Clear,180,2013-11-09 23:35:00
6:55 PM,49.6,33.8,54,30.11,10.0,South,8.1,-,N/A,,Clear,180,2013-11-09 23:55:00
7:15 PM,50.5,33.8,53,30.11,10.0,SSW,8.1,-,N/A,,Clear,200,2013-11-10 00:15:00
7:35 PM,50.2,33.4,53,30.10,10.0,SSW,10.4,16.1,N/A,,Clear,200,2013-11-10 00:35:00
7:55 PM,50.7,33.4,52,30.09,10.0,SSW,10.4,18.4,N/A,,Clear,210,2013-11-10 00:55:00
8:15 PM,50.2,33.4,53,30.08,10.0,SSW,10.4,17.3,N/A,,Clear,200,2013-11-10 01:15:00
8:35 PM,50.2,33.3,52,30.08,10.0,SSW,9.2,-,N/A,,Clear,210,2013-11-10 01:35:00
8:55 PM,49.8,33.4,53,30.07,10.0,SSW,10.4,17.3,N/A,,Clear,210,2013-11-10 01:55:00
9:35 PM,49.1,33.4,55,30.06,10.0,SSW,6.9,-,N/A,,Clear,210,2013-11-10 02:35:00
9:55 PM,48.4,33.3,56,30.06,10.0,SSW,9.2,-,N/A,,Clear,210,2013-11-10 02:55:00
10:15 PM,47.8,33.4,57,30.06,10.0,SW,9.2,-,N/A,,Clear,220,2013-11-10 03:15:00
10:35 PM,47.3,33.8,59,30.05,10.0,SSW,8.1,-,N/A,,Clear,210,2013-11-10 03:35:00
10:55 PM,46.9,33.4,59,30.05,10.0,SW,5.8,-,N/A,,Clear,220,2013-11-10 03:55:00
11:15 PM,45.7,33.4,62,30.05,10.0,SSW,5.8,-,N/A,,Clear,210,2013-11-10 04:15:00
11:35 PM,45.3,33.4,63,30.05,10.0,SSW,5.8,-,N/A,,Clear,210,2013-11-10 04:35:00
11:55 PM,44.6,33.6,65,30.05,10.0,SW,5.8,-,N/A,,Clear,220,2013-11-10 04:55:00